RH
17 25 23 24 18 16 14 11 7 6 11 37 49 60 43 61 23 53 83 48 56 90 85 97 94 77 75 75 70 68 68 57 31 7 11 13 14 16 26 34 34 63 36 39 40 35 30 30 32
16 29 17 14 18 18 12 10 8 11 32 24 20 48 55 82 70 76 87 74 58 82 74 95 99 97 83 79 74 71 69 45 14 10 14 14 16 24 35 36 35 35 36 39 39 37 34 35 39
16 22 16 15 16 15 11 9 10 14 19 33 34 26 54 94 58 78 81 91 96 84 76 88 96 96 90 83 77 75 62 30 8 14 15 16 22 34 38 40 38 38 39 39 41 37 38 36 39
28 18 15 14 10 8 8 9 10 14 35 29 21 51 79 96 82 53 83 69 80 91 84 83 94 94 94 90 80 77 47 13 11 16 16 21 32 35 37 43 41 41 38 40 40 43 44 40 36
18 13 14 13 12 7 10 10 10 17 55 36 32 68 73 81 84 74 80 93 46 76 66 72 91 79 73 88 84 64 28 10 16 17 18 32 34 33 35 41 39 36 37 40 45 49 51 48 33
16 13 13 13 11 22 37 42 28 16 41 37 37 64 62 62 92 70 76 88 87 86 68 75 78 95 86 91 82 45 14 14 19 19 25 36 34 34 38 38 38 35 40 45 51 54 54 50 39
13 13 13 11 11 26 46 32 50 43 52 67 46 83 88 96 100 97 98 88 97 96 84 86 91 99 100 89 54 23 14 19 21 25 36 36 35 36 38 38 37 41 45 51 56 57 56 49 41
12 11 12 9 16 23 37 43 43 25 72 46 59 53 82 84 96 100 88 89 100 100 100 96 99 100 93 61 31 22 22 22 29 36 41 39 37 39 38 39 44 48 52 56 59 60 58 53 43
11 13 14 12 12 17 19 32 41 36 33 72 96 99 98 100 99 99 98 98 100 99 95 75 86 91 78 72 34 24 22 21 40 42 39 41 44 46 45 45 49 53 57 59 61 63 58 52 48
10 14 13 9 9 12 11 18 57 47 27 76 66 98 97 100 100 99 99 99 100 100 99 96 98 98 92 45 49 32 21 38 45 41 47 60 66 64 58 54 55 58 62 62 64 60 61 65 57
10 13 11 9 13 12 13 35 36 31 52 80 62 99 98 99 98 99 99 100 99 100 98 100 98 100 81 63 54 29 43 58 44 67 67 67 75 65 57 54 57 64 67 64 64 66 69 66 53
11 10 10 10 12 14 13 25 44 52 65 80 92 98 99 99 96 99 98 100 100 99 100 100 100 95 62 43 38 60 58 43 67 55 63 63 73 51 44 44 56 69 70 66 71 73 67 53 39
11 10 11 12 16 16 19 22 27 50 72 86 94 96 99 98 99 99 100 98 100 100 99 100 100 95 66 53 64 57 47 70 56 51 67 62 44 40 44 64 69 73 74 73 74 72 60 43 43
13 13 12 14 14 17 23 65 60 71 68 83 85 98 97 97 99 100 100 100 100 100 100 99 98 92 86 98 88 89 86 74 57 56 50 46 47 47 77 83 75 77 75 77 75 73 58 57 47
12 14 13 15 16 21 31 43 71 55 55 52 63 86 77 89 87 99 100 98 99 99 98 100 99 100 89 80 82 75 77 66 57 55 56 54 50 80 83 79 80 78 78 76 74 70 59 48 48
15 13 18 20 19 28 33 55 39 44 48 49 50 65 87 80 96 96 95 99 98 89 100 100 98 88 89 84 72 68 70 63 59 51 50 46 47 83 81 81 82 79 78 77 74 69 58 57 49
14 18 17 19 17 26 32 64 49 46 38 45 54 66 78 96 94 92 88 94 90 89 86 91 88 79 80 78 70 72 71 72 69 52 54 45 50 92 78 84 80 82 81 80 75 62 57 51 47
18 20 18 24 23 18 48 59 63 58 34 36 40 41 56 61 80 80 85 89 92 84 76 79 76 78 72 67 87 86 73 58 52 43 69 82 70 86 80 84 85 84 84 79 74 64 56 51 46
12 16 20 22 24 23 29 46 64 53 37 36 34 38 47 56 59 75 79 77 85 90 78 65 71 85 93 95 81 72 70 75 50 66 84 78 69 92 82 86 87 83 85 78 74 64 57 47 47
12 14 16 12 15 15 15 15 32 29 33 37 41 40 44 54 64 64 73 76 84 80 72 63 59 72 70 63 60 52 46 38 43 44 61 64 75 91 85 86 92 76 83 77 73 67 56 52 58
13 15 15 20 19 15 15 16 14 29 26 31 37 38 36 40 61 58 66 75 79 73 72 81 85 84 75 67 66 73 64 64 70 68 62 70 82 88 92 86 92 79 77 75 73 68 56 55 63
15 11 14 19 19 20 16 26 17 25 25 28 29 32 31 32 42 56 60 67 70 77 78 75 77 78 82 74 84 72 65 65 71 80 82 83 82 88 83 91 86 86 80 75 74 67 54 58 69
14 18 21 18 17 21 18 20 13 16 20 28 30 31 31 31 32 43 53 60 63 69 74 75 76 76 76 78 74 78 64 70 69 72 77 84 90 85 70 90 89 83 78 78 76 72 62 66 63
13 20 22 19 20 33 21 18 23 25 26 18 21 28 30 30 30 32 42 49 60 64 69 76 74 75 79 74 76 78 74 68 74 83 85 86 84 84 81 86 87 81 81 84 77 72 61 61 63
15 20 31 34 37 40 20 18 17 25 21 19 15 16 27 28 28 30 33 42 50 57 61 66 72 74 74 74 72 70 68 78 72 69 75 83 83 88 85 84 86 85 89 89 85 70 64 64 58
20 20 35 75 88 46 31 26 16 15 12 11 12 12 17 26 28 28 29 35 41 48 56 62 64 66 71 68 70 70 48 58 72 70 68 69 80 67 91 92 88 87 87 89 78 70 73 71 62
20 25 19 63 70 70 61 21 11 12 11 11 11 14 16 15 25 28 28 28 34 41 48 56 65 65 68 68 69 72 48 52 62 65 66 64 59 71 97 100 96 94 92 94 76 74 73 80 66
18 18 32 32 56 62 26 20 20 18 13 12 12 13 18 18 17 22 26 26 28 36 44 49 55 64 67 69 73 74 57 57 63 67 68 61 73 90 99 100 100 99 100 96 84 78 80 73 71
20 23 27 29 30 48 47 30 31 35 36 14 12 12 14 17 21 23 23 24 26 30 40 49 55 65 70 72 76 79 78 70 70 74 74 76 80 86 94 100 99 99 98 93 87 81 84 75 67
18 21 24 41 36 42 61 39 15 19 22 14 14 14 14 16 18 24 30 30 28 28 34 41 54 69 64 76 75 80 72 74 76 74 77 91 94 99 99 98 97 96 94 93 88 89 89 74 77
Wind_Speed
5 6 7 11 7 8 16 20 22 21 2 8 19 13 18 28 12 3 12 12 16 7 18 24 27 32 31 28 27 25 22 20 16 18 21 23 25 26 26 26 26 26 24 24 24 25 24 25 25
7 7 11 16 10 13 13 13 17 6 7 9 9 8 8 5 15 5 8 11 17 20 22 25 25 28 31 28 26 25 22 20 18 22 24 26 27 27 26 26 25 25 25 24 23 23 24 24 26
7 5 12 11 13 14 12 9 13 11 5 4 2 19 7 5 13 1 9 11 22 17 23 23 24 25 29 28 26 23 21 20 22 24 26 28 28 27 26 25 25 24 24 24 22 22 22 23 24
8 14 14 10 14 18 14 1 6 13 22 24 20 9 16 5 7 8 8 5 24 24 24 24 26 26 26 26 25 24 21 21 24 26 28 30 29 27 27 26 24 23 23 23 21 20 20 21 23
11 14 11 15 20 17 8 20 6 10 4 5 29 5 8 7 2 3 5 15 15 20 12 23 23 25 24 26 25 24 23 25 27 28 30 30 29 28 27 26 24 23 22 21 19 19 19 19 20
17 21 12 10 13 18 17 31 23 8 11 18 16 13 13 7 2 5 4 8 12 22 19 28 28 26 32 31 27 24 25 26 27 30 31 30 28 27 26 24 23 22 21 19 18 17 17 17 18
14 12 15 16 6 11 4 20 21 10 15 14 27 17 10 13 6 7 5 8 9 23 23 30 24 31 31 28 26 26 27 27 30 31 30 29 27 26 25 23 22 20 19 17 15 15 14 15 17
15 12 20 10 3 2 10 20 19 11 6 4 8 7 10 7 8 6 4 7 14 17 32 29 19 21 24 26 26 26 28 28 29 29 28 27 26 24 23 22 20 18 16 14 13 13 12 12 16
15 12 11 14 3 6 10 2 13 15 7 18 11 13 10 9 8 6 7 5 8 14 16 19 31 27 25 25 28 28 27 27 29 28 26 25 24 23 21 20 18 15 14 12 11 11 11 15 15
11 12 14 8 10 10 15 10 15 11 3 16 13 8 8 9 7 7 10 11 20 27 24 34 34 30 32 32 31 31 31 30 28 28 26 23 21 18 18 17 15 13 11 11 10 14 13 10 12
17 13 10 12 8 11 16 11 27 9 10 15 13 4 9 6 4 6 9 14 18 32 31 33 32 33 36 35 34 35 32 33 30 27 24 20 18 14 16 13 11 11 9 9 12 10 9 6 7
6 16 9 11 15 11 14 3 15 18 13 15 9 7 8 8 5 6 8 8 16 25 36 37 36 38 35 36 34 32 32 33 33 29 23 19 16 13 10 8 11 12 9 8 8 7 6 6 2
11 14 12 12 8 11 12 10 14 16 17 17 11 11 9 10 12 7 10 14 13 21 28 36 38 36 40 40 35 36 39 32 31 27 20 13 12 10 11 9 8 9 8 8 11 6 5 3 2
9 11 15 10 12 9 3 17 31 12 10 15 12 10 9 13 7 8 12 16 16 21 25 27 34 40 42 40 40 35 36 33 29 22 19 13 11 10 11 12 8 11 13 8 6 5 5 5 3
14 15 15 16 10 1 13 9 6 22 4 15 14 12 12 11 9 7 10 15 18 19 21 29 36 33 38 36 36 37 30 32 31 26 14 14 14 13 12 15 15 13 11 11 12 11 11 7 4
15 18 16 10 15 9 13 4 11 17 25 19 18 18 13 12 14 12 12 16 16 19 20 28 27 35 35 34 33 37 32 30 27 23 16 20 20 14 16 13 15 15 16 17 15 11 7 8 6
16 15 15 7 2 8 6 3 17 17 14 21 20 14 14 16 15 13 11 19 22 20 27 29 30 27 33 34 22 30 23 26 28 22 18 22 21 15 17 17 14 18 17 12 11 13 9 9 8
7 12 11 7 6 10 16 12 11 28 14 14 16 15 15 16 20 14 19 20 21 17 26 26 30 30 38 31 22 19 21 24 26 19 20 25 20 18 19 16 19 21 15 16 16 14 15 12 9
15 9 21 7 6 11 19 22 22 28 22 18 17 22 19 19 18 20 23 18 23 20 26 32 29 25 24 21 25 23 24 23 32 24 22 19 18 21 21 20 23 20 17 17 15 19 18 15 15
14 13 18 5 11 5 9 11 20 18 22 22 21 23 24 23 26 26 27 24 25 31 32 32 30 30 33 25 24 23 26 24 25 29 24 23 19 21 21 20 23 19 19 20 22 20 16 12 14
14 16 16 13 6 9 10 12 4 15 19 22 25 24 27 30 32 30 31 33 31 28 33 32 28 24 24 23 19 23 20 17 22 17 21 22 21 22 23 20 24 22 19 23 25 21 18 13 16
15 14 13 10 13 9 5 11 7 18 15 15 19 22 22 27 33 35 33 34 35 35 31 30 30 29 29 26 28 28 26 27 26 22 20 19 20 24 24 22 24 24 22 25 26 21 20 20 16
13 1 10 13 13 14 14 7 5 10 13 18 17 23 25 26 30 38 39 39 37 38 37 33 31 32 31 29 30 28 26 25 25 27 27 24 24 27 27 27 29 27 26 25 24 23 20 23 20
9 10 14 11 11 11 15 11 6 2 6 9 20 27 25 27 30 31 38 38 40 37 40 40 36 35 36 27 26 24 27 25 23 21 23 27 29 30 27 28 32 29 29 27 30 26 26 23 20
9 11 8 9 9 9 17 11 6 11 17 16 14 21 30 31 28 30 35 40 41 42 41 41 40 38 35 32 29 28 27 29 31 29 25 26 27 31 30 24 29 32 31 29 29 27 27 26 22
12 15 8 4 3 9 14 5 7 17 10 5 1 5 16 32 34 32 32 36 40 42 43 43 42 39 38 35 33 34 27 35 39 32 30 32 30 36 34 31 29 32 31 25 25 27 29 21 23
14 15 15 7 3 5 10 7 7 10 6 4 5 2 8 12 33 37 37 38 37 41 43 43 41 38 38 39 42 42 30 31 39 35 33 31 29 33 33 34 28 27 29 24 29 31 28 26 23
16 12 11 7 5 6 8 10 3 4 5 8 4 7 3 2 10 24 31 31 39 40 42 42 41 40 38 38 43 47 35 34 32 31 31 31 30 33 31 30 30 29 29 28 30 31 29 26 23
10 12 8 13 11 6 4 5 7 5 11 3 5 7 6 5 2 4 7 10 24 38 35 42 43 40 37 41 44 43 39 38 34 26 26 27 29 27 23 28 28 26 28 30 32 33 29 26 18
18 16 17 10 9 5 1 6 8 8 15 4 1 6 5 2 2 6 6 7 11 15 16 33 39 39 31 39 40 33 39 38 34 27 23 24 25 24 27 23 21 23 27 31 33 29 26 20 21
Wind_Direction
275 317 329 271 250 235 250 251 250 264 69 4 53 64 342 357 289 355 356 4 15 274 155 155 159 168 168 165 160 155 148 145 144 140 134 130 127 125 125 122 118 117 111 105 100 96 92 89 86
281 271 265 268 252 270 259 320 281 355 87 356 343 97 223 86 324 40 25 115 163 179 172 163 164 172 169 166 163 157 151 151 148 143 137 133 131 130 128 124 120 116 112 107 102 97 91 88 89
280 279 268 238 252 254 284 317 306 42 29 121 95 200 128 122 268 325 65 148 165 173 172 169 165 172 168 167 164 159 158 155 151 143 140 135 134 133 130 128 124 119 114 110 104 96 92 88 93
287 251 241 253 262 280 311 234 332 311 21 355 308 59 84 86 206 149 102 174 173 164 172 168 164 165 167 171 167 165 164 159 152 145 142 139 137 135 134 132 127 123 118 112 106 97 91 87 94
249 262 255 255 265 276 5 334 332 329 145 295 287 93 104 319 5 271 180 214 192 185 186 176 168 171 173 178 174 169 167 162 152 147 145 142 139 136 134 134 130 125 122 116 107 98 93 86 88
271 253 271 276 273 39 21 342 331 313 147 205 257 62 343 267 219 226 197 173 178 180 195 177 178 187 173 175 172 171 166 159 153 150 149 144 139 135 135 133 131 128 123 118 107 101 93 85 83
261 288 282 296 342 36 11 314 289 80 317 346 339 143 189 226 173 198 216 174 163 191 192 177 182 184 170 168 173 167 162 157 153 154 150 141 139 137 136 134 131 129 122 116 108 100 92 82 78
274 286 278 277 53 93 195 218 268 319 130 70 274 343 121 183 158 148 174 144 168 169 145 156 176 146 160 165 166 164 160 155 156 153 148 143 140 138 135 135 133 129 120 116 109 98 89 80 74
271 267 269 297 307 125 208 151 70 311 279 78 52 51 89 128 107 121 96 135 178 170 208 185 191 177 168 175 159 162 160 164 157 151 147 142 136 134 142 139 135 131 122 116 112 98 92 68 62
246 266 307 8 324 2 319 340 162 211 276 65 30 38 98 98 84 96 118 132 154 163 183 184 178 172 165 173 164 166 158 154 153 146 139 133 133 147 140 140 137 135 131 123 111 96 81 65 54
259 261 340 310 31 335 315 30 320 313 47 71 281 189 103 114 119 96 112 134 162 168 178 175 178 168 162 161 162 154 154 156 147 136 139 147 149 139 144 137 139 148 154 137 113 98 103 128 186
291 270 290 304 331 326 299 353 75 34 82 111 136 143 107 94 84 115 133 166 165 167 161 180 184 179 172 155 153 155 160 157 150 154 152 162 153 132 146 172 173 170 168 148 105 162 184 175 155
245 265 303 293 310 285 319 339 334 89 100 101 112 101 89 106 116 110 143 160 173 171 170 165 176 177 170 161 157 161 155 166 165 159 150 169 166 171 182 190 185 151 178 150 192 216 178 151 91
298 291 284 269 265 280 246 28 13 38 100 95 93 97 102 114 106 126 139 154 168 173 176 172 160 161 160 162 157 155 153 160 161 153 152 170 174 209 172 189 200 183 213 183 213 190 135 157 306
267 280 272 279 253 106 94 60 196 260 279 107 108 123 111 113 108 131 144 160 168 170 176 163 161 156 161 165 163 150 148 160 153 150 174 186 190 216 199 212 199 205 186 192 200 194 194 221 228
264 260 265 205 262 101 99 261 265 267 247 130 124 122 127 116 136 142 133 147 152 146 162 160 147 165 161 155 151 165 168 167 179 182 211 212 206 226 212 210 201 203 206 209 217 215 188 202 207
253 257 238 251 67 165 123 93 287 263 222 153 151 143 151 155 150 140 134 148 153 144 144 146 150 152 165 176 149 156 163 191 199 205 214 222 222 217 220 212 222 212 220 200 208 193 202 229 224
269 268 314 265 288 255 150 178 181 267 183 190 155 139 145 150 163 153 145 153 148 156 146 150 141 142 149 151 178 174 190 202 197 214 226 214 207 222 230 220 215 224 208 213 213 215 204 216 220
281 279 257 138 213 222 264 172 196 201 175 185 160 148 160 164 155 156 165 164 153 175 156 159 161 169 179 184 181 184 189 198 204 225 215 229 225 217 234 205 232 235 207 225 227 212 224 218 233
277 275 279 224 192 224 281 284 172 174 174 179 173 172 175 182 171 171 180 174 173 177 164 163 163 172 180 192 194 202 203 214 224 229 229 233 224 220 231 213 237 242 213 220 221 228 229 219 255
258 259 268 342 235 247 263 271 213 169 187 179 178 186 186 179 170 175 176 179 182 192 181 177 189 193 193 192 188 205 215 221 221 230 228 226 221 216 227 221 227 243 212 226 231 233 214 227 241
242 248 287 221 275 269 299 278 191 168 179 181 185 190 194 185 177 178 184 187 188 194 200 200 195 199 203 203 204 205 205 210 214 214 218 236 232 229 230 233 232 234 223 225 240 238 227 220 221
242 54 295 290 264 279 268 242 265 202 195 180 190 195 194 196 189 185 187 195 203 196 202 204 205 210 214 213 203 208 208 217 223 227 220 225 229 240 234 224 235 234 237 236 237 238 230 229 231
232 180 233 258 261 265 267 253 225 132 321 226 185 189 198 198 198 196 191 194 200 206 204 208 206 209 214 220 210 213 220 219 224 230 230 226 239 247 249 240 240 242 238 234 224 229 236 240 235
218 251 243 238 239 243 249 253 229 168 204 236 178 194 190 199 203 198 194 192 196 201 209 207 210 210 211 222 219 208 221 229 225 227 235 236 247 254 251 255 241 245 242 239 236 234 244 245 242
212 231 233 179 311 303 324 254 245 179 171 100 121 267 202 194 196 202 205 198 197 201 206 208 211 213 210 213 218 216 221 234 235 234 231 240 253 265 262 272 254 247 247 246 229 241 251 250 247
216 219 242 96 248 266 240 249 224 173 158 158 190 79 266 237 200 201 205 203 198 199 202 207 206 215 212 212 219 223 230 229 233 242 241 250 251 254 262 265 265 251 245 241 233 245 248 250 251
243 235 243 195 202 222 261 260 354 130 235 156 208 182 117 257 238 216 206 213 201 200 202 209 213 211 209 213 220 225 231 230 234 239 244 252 257 258 263 262 256 249 245 242 241 245 249 245 246
215 238 222 258 238 246 267 284 113 345 339 263 173 149 133 143 196 279 262 231 217 213 208 206 210 201 207 213 221 226 228 229 234 244 245 250 254 259 258 258 256 246 244 243 241 244 248 242 238
246 222 225 245 221 256 285 263 183 190 210 189 229 240 150 130 142 181 215 232 236 232 210 209 208 199 223 219 227 230 232 230 232 246 239 246 250 251 248 257 248 242 244 245 244 244 237 228 216